Retour au catalogue

USA 464

ActifMilitaireVLEO
NORAD 62533·PAYLOAD·🇺🇸 United States

Lancé Jan 10, 2025 depuis Vandenberg Space Force Base

Loading…

Prochains Passages (prochaines 24 heures)

TLE

PériméSource: Mike McCants

Époque: Aug 25, 2026, 01:41 UTC

1 62533U 25005B   26237.07047296 0.00000000  00000-0  00000-0 0    09
2 62533  70.0154 228.9580 0002000 151.8741 208.1258 14.96713568    07

Suivez USA 464 en temps réel avec AllMySat

Download on the App Store